Location: *
(44.6853°N, 6.3258°E)
Time: 01:27:47
(UTC+00:00)

Daily predictions for brighter satellites

Satellite Brightness Start Highest point End
(mag) Time Altitude Azimuth Time Altitude Azimuth Time Altitude Azimuth
SL-16 R/B 4.3 01:04:18 24° N 01:04:18 24° N 01:06:32 10° N
ADEOS II 4.5 01:02:38 10° NE 01:04:23 18° NE 01:04:23 18° NE
Cosmos 1980 Rocket 4.1 01:20:38 24° ENE 01:20:38 24° ENE 01:23:15 10° NE
Cosmos 2263 Rocket 4.2 01:17:06 10° N 01:21:36 23° NE 01:26:04 10° E
Resurs 1-4 Rocket 4.0 01:50:01 10° N 01:51:58 22° N 01:51:58 22° N
CZ-2D R/B 4.0 01:53:14 10° N 01:55:14 23° N 01:55:14 23° N
SJ 16-02 4.0 02:02:05 10° N 02:03:00 15° N 02:03:00 15° N
Lacrosse 5 3.4 02:13:50 32° NNE 02:13:50 32° NNE 02:16:59 10° NE
ATLAS 5 CENTAUR R/B 4.3 02:16:15 12° NNW 02:16:15 12° NNW 02:17:46 10° N
Cosmos 2278 4.3 02:23:24 51° N 02:23:24 51° N 02:27:44 10° NNE
ARIANE 5 R/B 3.1 02:21:21 10° NNE 02:25:29 54° NE 02:25:29 54° NE
SL-4 R/B 3.9 02:27:59 30° E 02:27:59 30° E 02:30:51 10° ENE
USA 267 3.2 02:26:56 10° NE 02:33:30 73° SE 02:34:08 68° S
NOSS 3-3 (A) 3.8 02:34:42 84° ESE 02:34:42 84° ESE 02:41:18 10° NE
NOSS 3-3 (C) 3.8 02:34:49 84° ESE 02:34:49 84° ESE 02:41:23 10° NE
ADEOS II 3.1 02:41:58 10° N 02:45:20 33° NNW 02:45:20 33° NNW
Cosmos 1339 Rocket 4.4 02:47:25 55° S 02:48:54 84° E 02:55:07 10° N
Cosmos 990 Rocket 4.4 02:44:31 10° NNW 02:49:42 62° ENE 02:54:52 10° SSE
ATLAS 2AS CENTAUR R/B 3.8 02:42:44 10° NNW 02:49:57 44° NE 02:56:37 10° ESE
IDEFIX/ARIANE 42P 2.5 02:45:36 10° NNE 02:50:55 84° ESE 02:51:13 79° SSE
Cosmos 921 Rocket 4.0 02:52:55 40° N 02:52:55 40° N 02:55:41 10° NNE
Cosmos 2360 Rocket 4.1 02:47:36 11° SSE 02:52:04 26° ESE 02:56:41 10° NE
BREEZE-M DEB (TANK) 4.3 02:51:05 49° SW 02:53:22 72° SSE 03:18:01 10° ENE
Cosmos 1697 Rocket 4.1 02:56:36 25° NW 02:56:36 25° NW 03:00:31 10° N
Cosmos 468 Rocket 4.2 02:57:16 55° SSE 02:58:16 69° ESE 03:03:31 10° NNE
Cosmos 1980 Rocket 2.9 03:02:24 38° NW 03:02:24 38° NW 03:07:22 10° NNE
Cosmos 2263 Rocket 2.1 03:00:24 10° NNW 03:06:00 65° WSW 03:11:37 10° SSE
USA 307 4.5 03:06:10 26° NNW 03:06:25 26° NNW 03:10:02 10° NE
Meteor 1-11 Rocket 4.1 03:01:32 10° N 03:07:17 65° ENE 03:12:50 10° SSE
USA 234 3.5 03:01:51 10° ESE 03:08:20 70° NE 03:14:50 10° NW
USA 308 4.5 03:09:22 25° NNW 03:09:46 26° N 03:13:22 10° NE
Cosmos 44 4.3 03:10:35 30° NNW 03:10:35 30° NNW 03:14:15 10° NNE
Cosmos 1844 Rocket 4.3 03:05:22 10° N 03:10:29 34° NE 03:15:36 10° ESE
Cosmos 2322 Rocket 2.4 03:08:23 36° S 03:10:41 68° ESE 03:16:22 10° NNE
Meteor 1-4 Rocket 3.4 03:13:45 43° NNE 03:13:45 43° NNE 03:16:14 10° N
Meteor 1-27 Rocket 4.2 03:10:08 12° S 03:15:32 63° E 03:21:22 10° NNE
Cosmos 1707 Rocket 3.9 03:14:38 33° SSE 03:16:25 62° E 03:20:43 10° NNE
Cosmos 1666 2.9 03:13:21 10° N 03:17:10 70° E 03:18:11 45° SSE
CZ-2D R/B 4.0 03:14:08 10° N 03:17:38 47° NW 03:17:38 47° NW
Cosmos 1812 3.5 03:21:35 40° NNW 03:21:35 40° NNW 03:24:20 10° N
Cosmos 1934 Rocket 4.5 03:16:04 10° NNW 03:20:55 36° WNW 03:20:55 36° WNW
SL-16 R/B 2.1 03:20:04 43° SSW 03:22:00 83° WNW 03:27:43 10° NNE
CZ-3B R/B 3.6 03:21:33 24° NW 03:23:09 31° N 03:31:55 10° ENE
USA 276 3.3 03:25:21 37° N 03:25:28 37° NNE 03:28:30 10° E
COSMOS 2441 4.3 03:21:11 10° N 03:26:07 77° WNW 03:27:54 40° SSW
Cosmos 1536 3.1 03:25:26 10° N 03:29:31 69° E 03:33:34 10° SSE
ATLAS CENTAUR R/B 4.3 03:21:12 10° NW 03:31:22 38° N 03:35:39 10° E
Cosmos 1733 Rocket 3.7 03:27:39 10° N 03:31:56 55° ENE 03:36:10 10° SSE
Cosmos 2173 Rocket 4.4 03:25:38 10° N 03:31:58 66° E 03:38:18 10° SSE
Spot 4 Rocket 4.3 03:28:19 10° N 03:33:14 47° WNW 03:34:17 41° WSW
CZ-2C R/B 2.8 03:28:51 10° NNE 03:34:00 69° ESE 03:39:10 10° S
Cosmos 1898 Rocket 3.4 03:29:21 10° NNW 03:34:32 61° WSW 03:39:44 10° S
ASTEX 1 4.3 03:34:34 10° NNW 03:38:38 30° WNW 03:38:38 30° WNW
ALOS 4.2 03:34:57 10° NE 03:39:02 30° E 03:43:06 10° SSE
CZ-4C R/B 4.3 03:33:41 10° NNW 03:40:09 38° NE 03:47:34 10° ESE
Cosmos 2219 Rocket 4.4 03:36:20 10° SSE 03:40:43 24° ESE 03:45:08 10° NE
Cosmos 1869 Rocket 4.4 03:37:49 10° NNW 03:40:47 31° WNW 03:40:47 31° WNW
Cosmos 858 Rocket 4.3 03:37:02 10° NNW 03:42:13 73° WSW 03:47:23 10° SSE
MSX 4.0 03:37:12 10° N 03:42:49 54° WNW 03:45:54 26° SW
Cosmos 967 Rocket 4.4 03:40:08 26° SW 03:43:56 78° NW 03:50:23 10° NNE
IRIDIUM 104 4.5 03:41:06 10° NNW 03:46:08 49° W 03:50:24 14° SSW
Landsat 5 3.7 03:42:01 10° S 03:46:26 53° W 03:50:48 10° NNW
Cosmos 2228 Rocket 4.4 03:48:01 23° WNW 03:48:01 23° WNW 03:50:59 10° NNW
PSLV R/B 3.4 03:43:34 10° NNE 03:47:48 83° W 03:51:00 17° SSW
Cosmos 1862 Rocket 3.8 03:46:44 10° S 03:51:05 72° E 03:55:25 10° NNE
CZ-4C R/B 4.1 03:55:01 28° WNW 03:55:01 28° WNW 03:57:14 10° NNW
Cosmos 1937 Rocket 3.5 03:50:34 10° NNW 03:55:35 54° WSW 04:00:35 10° S
Lacrosse 5 3.7 03:53:01 12° NW 03:56:16 21° N 04:00:06 10° NE
H-2A R/B 2.4 03:52:51 10° S 03:57:01 42° W 04:01:18 10° NNW
ERBS 4.1 03:58:34 17° NW 03:59:23 19° NNW 04:01:53 10° NNE
Cosmos 2208 Rocket 4.0 03:54:09 10° SSW 03:59:23 86° ESE 04:04:37 10° NNE
X-37B 1.9 03:59:50 25° SSW 03:59:50 25° SSW 04:02:16 10° SSE
Cosmos 841 Rocket 3.4 03:56:30 14° SSW 04:01:00 75° WNW 04:06:18 10° NNE
FALCON 9 DEB 3.9 04:01:05 30° WNW 04:02:12 40° NNW 04:05:29 10° NE
ERS-2 2.1 03:58:36 10° S 04:02:13 59° WSW 04:05:51 10° NNW
USA 32 4.2 03:58:00 10° NNW 04:03:04 50° W 04:08:07 10° SSW
Cosmos 2016 Rocket 4.1 03:57:21 10° N 04:03:30 76° E 04:09:35 10° SSE
ARIANE 5 R/B 4.0 04:01:37 10° NNW 04:04:59 18° WNW 04:05:49 17° WNW
Cosmos 1743 3.0 04:01:13 10° N 04:05:02 70° E 04:08:49 10° SSE
Cosmos 1814 Rocket 3.9 04:00:00 10° SSW 04:05:12 86° WNW 04:10:32 10° NNE
Cosmos 2061 Rocket 4.2 03:59:13 10° N 04:05:41 79° E 04:12:07 10° SSE
SL-4 R/B 2.6 04:03:35 25° W 04:06:06 57° NNW 04:10:51 10° ENE
Cosmos 1000 Rocket 4.4 04:00:23 10° SSW 04:06:33 76° W 04:12:44 10° N
Cosmos 1763 Rocket 4.2 04:04:26 23° WSW 04:07:05 37° WNW 04:11:59 10° N
CZ-2C R/B 4.0 04:04:37 10° NNW 04:07:39 23° WNW 04:08:05 22° WNW
Cosmos 2333 Rocket 3.5 04:02:40 10° S 04:08:05 43° ESE 04:13:29 10° NE
Cosmos 2322 4.2 04:08:16 10° S 04:13:49 61° ESE 04:19:24 10° NNE
Cosmos 1544 3.6 04:11:45 10° N 04:15:18 60° E 04:18:51 10° SSE
USA 267 3.8 04:10:07 10° NE 04:16:17 46° NNW 04:21:29 15° W
NOSS 3-4 (A) 3.9 04:10:24 10° NW 04:17:22 61° WSW 04:25:02 10° SSE
NOSS 3-4 (C) 3.9 04:10:30 10° NW 04:17:28 61° WSW 04:25:09 10° SSE
CZ-4B R/B 1.2 04:18:52 10° S 04:22:00 59° W 04:25:15 10° NNW
Cosmos 1864 Rocket 4.5 04:18:29 10° N 04:24:46 88° W 04:30:57 10° S
ADEOS 3.5 04:20:09 10° NNE 04:25:24 78° WNW 04:30:36 10° SSW
Cosmos 1725 Rocket 4.0 04:19:13 10° N 04:25:26 89° W 04:31:37 10° S
Cosmos 540 Rocket 3.8 04:20:36 10° SW 04:25:30 46° WNW 04:30:31 10° N
ADEOS Rocket 3.2 04:19:45 10° S 04:26:17 54° W 04:32:13 10° NNW
Cosmos 1975 3.6 04:24:15 10° N 04:28:13 57° E 04:32:08 10° SSE
COSMO-SKYMED 1 3.4 04:24:48 10° SSE 04:29:02 55° ENE 04:33:17 10° N
IDEFIX/ARIANE 42P 4.3 04:26:48 10° NNW 04:29:48 15° WNW 04:32:01 12° W
Cosmos 2333 4.3 04:26:07 10° SSW 04:31:53 86° ESE 04:37:42 10° NNE
Meteor 1-18 Rocket 4.3 04:27:08 10° S 04:32:40 81° E 04:38:17 10° NNE
Cosmos 2100 Rocket 4.4 04:27:37 10° NNW 04:33:32 42° W 04:39:25 10° SSW
Meteor 1-19 Rocket 4.4 04:28:04 10° S 04:33:33 76° E 04:39:11 10° NNE
Cosmos 2360 Rocket 2.5 04:30:15 10° SW 04:35:45 50° WNW 04:41:16 10° NNE
FENGYUN 3A 3.6 04:31:11 10° NNE 04:36:36 80° WNW 04:42:00 10° SSW
deb Chang Zheng 4 3.6 04:33:47 10° N 04:37:59 55° WNW 04:42:08 10° SSW
SAR-Lupe-4 3.8 04:35:42 10° S 04:39:09 47° W 04:42:38 10° NNW
Cosmos 1459 Rocket 4.4 04:34:55 10° NNW 04:40:28 38° W 04:45:58 10° SSW
ATLAS 2AS CENTAUR R/B 3.0 04:33:59 10° NW 04:41:03 50° WSW 04:47:34 10° S
Cosmos 1802 Rocket 4.2 04:36:41 10° NNW 04:42:34 47° W 04:48:31 10° SSW
Cosmos 1484 Rocket 3.0 04:39:17 10° N 04:43:13 55° WNW 04:47:08 10° SSW
Cosmos 1782 Rocket 4.0 04:40:11 10° N 04:44:40 69° E 04:49:06 10° SSE
Cosmos 1908 Rocket 3.6 04:41:37 10° NNW 04:46:03 63° W 04:50:27 10° S
Cosmos 44 Rocket 4.1 04:42:24 10° WSW 04:46:45 34° NW 04:51:13 10° NNE
Cosmos 1703 Rocket 3.5 04:42:53 10° S 04:47:13 82° W 04:51:35 10° N
SJ-12 4.0 04:45:44 10° NNE 04:49:54 86° ESE 04:54:02 10° SSW
Okean 1 3.6 04:46:15 10° SSW 04:50:08 45° WNW 04:54:02 10° N
USA 234 3.8 04:45:36 10° SSE 04:51:36 39° SW 04:57:39 10° WNW
Okean 1-7 2.9 04:48:11 10° SSW 04:52:26 79° W 04:56:42 10° N
Cosmos 1515 3.8 04:49:38 10° SSW 04:53:20 52° WNW 04:57:04 10° N
Cosmos 2123 Rocket 4.2 04:48:06 10° SSW 04:54:12 54° WNW 05:00:24 10° N
Cosmos 1844 Rocket 3.1 04:49:11 10° NW 04:54:27 40° WSW 04:59:41 10° S
Cosmos 2322 Rocket 3.5 04:50:49 10° W 04:55:16 23° NW 04:59:45 10° N
Meteor 1-31 Rocket 3.0 04:52:02 10° N 04:55:44 48° WNW 04:59:28 10° SSW
Cosmos 2278 Rocket 3.4 04:51:23 10° NNW 04:56:51 46° ENE 05:02:16 10° SE
Cosmos 1844 4.0 04:54:46 10° NW 05:00:02 44° WSW 05:05:16 10° S
